#timestamp,LO_Frequency,Hit,StdDev 
1565881215.5,286047007.2,N
1565881235.3,286047007.3,N
1565881255.2,286047007.9,N
1565881275.9,286047011.4,N
1565881295.7,286047014.5,N
1565881315.6,286047014.7,N
1565881335.4,286047009.0,N
1565881355.2,286047003.2,N
1565881375.1,286047002.9,N
1565881376.0,286047002.9,N
1565881395.8,286047003.1,N
1565881415.7,286047005.1,N
1565881435.5,286047003.6,N
1565881455.3,286047001.2,N
1565881475.2,286046999.1,N
1565881495.9,286046997.6,N
1565881515.7,286046997.5,N
1565881535.6,286046995.1,N
1565881555.4,286047001.0,N
1565881575.3,286046999.0,N
1565881595.1,286046998.9,N
1565881596.0,286046998.9,N
1565881615.8,286047000.5,N
1565881635.7,286046999.1,N
1565881655.5,286046996.5,N
1565881675.3,286046998.9,N
1565881695.2,286046998.2,N
1565881745.1,286047000.0,E
1565881755.9,286047000.9,N
1565881775.7,286046995.3,P
1565881795.6,286046998.0,N
1565881815.4,286047000.9,N
1565881835.2,286047002.0,N
1565881855.1,286047000.4,N
1565881856.0,286047000.4,N
1565881875.8,286046995.8,N
1565881895.7,286046996.4,N
1565881915.5,286046996.1,N
1565881935.3,286046993.9,N
1565881955.2,286046998.8,N
1565881975.9,286047003.8,N
1565881995.7,286047012.4,Y
1565882015.6,286047011.4,P
1565882035.4,286047010.2,N
1565882055.3,286047007.7,N
1565882075.1,286047006.5,N
1565882076.0,286047006.5,N
1565882095.8,286047006.3,N
1565882115.7,286047010.7,N
1565882135.5,286047010.6,N
1565882155.3,286047010.4,N
1565882175.2,286047007.7,N
1565882195.0,286047012.2,Y
1565882195.9,286047012.2,P
1565882215.8,286047004.4,N
1565882235.6,286047005.3,N
1565882255.4,286047007.1,N
1565882275.3,286047003.3,N
1565882295.1,286047002.2,N
1565882315.8,286046999.4,N
1565882335.7,286046998.4,N
1565882355.5,286047000.2,N
1565882375.4,286047001.0,N
1565882395.2,286046999.5,N
1565882415.0,286046998.8,N
1565882415.9,286046998.8,N
1565882435.8,286046999.0,N
1565882455.6,286046999.4,N
1565882475.4,286047000.8,N
1565882495.3,286046997.2,N
1565882515.1,286046999.1,N
1565882535.9,286046997.3,N
1565882555.7,286046996.0,N
1565882575.5,286046995.6,N
1565882595.4,286046999.1,N
1565882615.2,286046997.3,N
1565882635.0,286046996.5,N
1565882635.9,286046996.5,N
1565882655.8,286046995.0,N
1565882675.6,286046993.7,N
1565882695.5,286046993.6,N
1565882715.3,286046994.8,N
1565882735.1,286046990.8,N
1565882755.9,286046989.4,N
1565882775.7,286046989.3,N
1565882795.5,286046988.6,N
1565882815.4,286046991.1,N
1565882835.2,286046989.2,N
1565882855.1,286046990.2,N
1565882856.0,286046990.2,N
1565882875.8,286046995.6,N
1565882895.6,286046999.4,N
1565882915.5,286047001.5,N
1565882935.3,286046999.9,N
1565882955.1,286046998.3,N
1565882975.9,286046999.1,N
1565882995.7,286046998.9,N
1565883015.6,286047000.4,N
1565883035.4,286047001.6,N
1565883055.2,286047001.8,N
1565883075.1,286047000.6,N
1565883076.0,286047000.6,N
1565883095.8,286047000.5,N
1565883115.6,286046997.3,N
1565883135.5,286046994.9,N
1565883155.3,286046993.6,N
1565883175.2,286046992.5,N
1565883195.9,286046992.0,N
1565883215.7,286046991.3,N
1565883235.6,286046990.3,N
1565883255.4,286046991.3,N
1565883275.2,286046990.4,N
1565883295.1,286046990.4,N
1565883296.0,286046990.4,N
1565883315.8,286046990.4,N
1565883335.7,286046994.7,N
1565883355.5,286046994.9,N
1565883375.3,286047000.5,N
1565883395.2,286047003.6,N
1565883415.0,286047003.5,N
1565883415.9,286047003.5,N
1565883435.8,286047003.8,N
1565883455.6,286047012.1,N
1565883475.4,286047016.9,Y
1565883495.3,286047021.5,P
1565883515.1,286047018.9,N
1565883535.8,286047014.2,N
1565883555.7,286047011.7,N
1565883575.5,286047008.5,N
1565883595.4,286047007.2,N
1565883615.2,286047006.0,N
1565883635.0,286047002.4,N
1565883635.9,286047002.4,N
1565883655.8,286046998.6,N
1565883675.6,286047000.6,N
1565883695.5,286047005.6,N
1565883715.3,286047001.3,N
1565883735.1,286047002.1,N
1565883755.9,286046998.1,N
1565883775.7,286046998.9,N
1565883795.6,286046996.9,N
1565883815.4,286046999.6,N
1565883835.2,286046995.5,N
1565883855.1,286046993.9,N
1565883856.0,286046993.9,N
1565883875.8,286046994.0,N
1565883895.6,286046993.9,N
1565883915.5,286046995.1,N
1565883935.3,286046997.3,N
1565883955.2,286046998.7,N
1565883975.9,286046999.7,N
1565883995.7,286047002.2,N
1565884015.6,286047001.9,N
1565884035.4,286047006.7,N
1565884055.2,286047008.5,N
1565884075.1,286047007.6,N
1565884076.0,286047007.6,N
1565884095.8,286047001.7,N
1565884115.7,286047000.5,N
1565884135.5,286046999.0,N
1565884155.3,286046998.3,N
1565884175.2,286046999.3,N
1565884195.0,286047003.8,N
1565884195.9,286047003.8,N
1565884215.7,286047006.2,N
1565884235.6,286047008.4,N
1565884255.4,286047013.6,Y
1565884275.3,286047012.7,P
1565884295.1,286047009.3,N
1565884296.0,286047009.3,N
1565884315.8,286047012.2,N
1565884335.7,286047016.3,Y
1565884355.5,286047009.3,P
1565884375.4,286047010.4,P
1565884395.2,286047003.0,P
1565884415.0,286047004.0,N
1565884415.9,286047004.0,N
1565884435.8,286046999.9,N
1565884455.6,286046996.7,N
1565884475.4,286046997.7,N
1565884495.3,286046995.4,N
1565884515.1,286046995.6,N
1565884535.9,286046993.0,N
1565884555.7,286046991.6,N
1565884575.5,286046991.6,N
1565884595.4,286046989.5,N
1565884615.2,286046989.5,N
1565884635.0,286046988.6,N
1565884636.0,286046988.6,N
1565884655.8,286046990.7,N
1565884675.6,286046990.3,N
1565884695.5,286046994.5,N
1565884715.3,286046996.0,N
1565884735.1,286046998.2,N
1565884755.9,286047000.0,N
1565884775.7,286046999.8,N
1565884795.6,286047000.5,N
